GW4545 Weather Reports


Display with metric or nautical units.
time (UTC)temp
F
wind
direction
speed
MPH
gust
MPH
rain 1hr
in
rain 24hr
in
rain mn
in
humidity
%
barometer
mb
20260906073103 53 0 0.0 2.0 0.00 0.01 0.00 92 1016.4
20260906071556 54 269 1.0 2.0 0.00 0.01 0.00 92 1016.4
20260906070053 54 236 0.0 2.0 0.00 0.01 0.00 91 1016.4
20260906064558 55 0 0.0 2.0 0.00 0.01 0.01 90 1016.4
20260906063050 55 283 0.0 2.0 0.00 0.01 0.01 89 1016.4
20260906061551 55 0 0.0 2.0 0.00 0.01 0.01 88 1016.4
20260906060048 55 340 1.0 3.0 0.00 0.01 0.01 88 1016.5
20260906054553 56 290 0.0 4.0 0.00 0.01 0.01 89 1016.6
20260906053102 55 298 0.0 4.0 0.00 0.01 0.01 89 1016.6
20260906051548 55 272 1.0 3.0 0.00 0.01 0.01 90 1016.6
20260906050057 55 250 0.0 1.0 0.00 0.01 0.01 91 1016.7
20260906044552 55 0 1.0 3.0 0.00 0.01 0.01 90 1016.8
20260906043058 56 270 1.0 2.0 0.00 0.01 0.01 89 1017.1
20260906041550 56 276 0.0 2.0 0.00 0.01 0.01 89 1017.0
20260906040055 56 0 1.0 3.0 0.00 0.01 0.01 89 1017.0
20260906034554 56 262 0.0 3.0 0.00 0.01 0.01 88 1016.8
20260906033101 57 260 1.0 4.0 0.00 0.01 0.01 86 1016.8
20260906031550 58 277 2.0 6.0 0.00 0.01 0.01 85 1016.8
20260906030052 58 276 1.0 3.0 0.00 0.01 0.01 85 1016.7
20260906024600 59 259 2.0 4.0 0.00 0.01 0.01 84 1016.7
20260906023056 60 287 0.0 6.0 0.00 0.01 0.01 81 1016.6
20260906021606 61 261 3.0 8.0 0.00 0.01 0.01 78 1016.6
20260906020107 61 294 3.0 7.0 0.00 0.01 0.01 77 1016.6
20260906014547 64 255 2.0 8.0 0.00 0.01 0.01 73 1016.5
20260906013101 65 248 5.0 8.0 0.00 0.01 0.01 70 1016.6
20260906011601 68 264 2.0 4.0 0.00 0.01 0.01 67 1016.6
20260906010057 70 246 1.0 4.0 0.00 0.01 0.01 54 1016.6
20260906004602 70 245 2.0 4.0 0.00 0.01 0.01 53 1016.6
20260906003057 71 232 1.0 5.0 0.00 0.01 0.01 56 1016.6
20260906001558 70 111 2.0 4.0 0.00 0.01 0.01 55 1016.6
20260906000057 71 0 1.0 7.0 0.00 0.01 0.01 53 1016.7
20260905234554 71 0 1.0 6.0 0.00 0.01 0.01 53 1016.5
20260905233050 70 340 1.0 7.0 0.00 0.01 0.01 55 1016.7
20260905231549 69 269 0.0 4.0 0.00 0.01 0.01 57 1016.6
20260905230055 68 0 1.0 6.0 0.00 0.01 0.01 60 1016.7
20260905224554 67 38 3.0 6.0 0.00 0.01 0.01 63 1016.9
20260905223048 66 154 0.0 5.0 0.00 0.01 0.01 63 1017.0
20260905221554 67 0 2.0 5.0 0.00 0.01 0.01 61 1017.2
20260905214602 68 17 4.0 8.0 0.00 0.01 0.01 65 1017.4
20260905213054 66 164 2.0 7.0 0.00 0.01 0.01 66 1017.6
20260905211553 66 202 2.0 6.0 0.00 0.01 0.01 66 1017.7
20260905210115 67 36 2.0 8.0 0.00 0.01 0.01 67 1017.7
20260905204602 66 5 1.0 4.0 0.00 0.01 0.01 68 1017.8
20260905203055 64 167 2.0 6.0 0.00 0.01 0.01 72 1018.0
20260905201552 64 0 0.0 6.0 0.00 0.01 0.01 72 1018.1
20260905200050 63 181 0.0 3.0 0.00 0.01 0.01 72 1018.1
20260905194610 63 205 2.0 6.0 0.00 0.01 0.01 73 1018.2
20260905193053 63 0 1.0 4.0 0.00 0.01 0.01 76 1018.2
20260905191553 63 329 1.0 5.0 0.00 0.01 0.01 79 1018.2
20260905190048 63 235 3.0 6.0 0.00 0.01 0.01 77 1018.2
20260905184614 63 58 0.0 6.0 0.00 0.01 0.01 76 1018.6
20260905183105 62 214 1.0 3.0 0.00 0.01 0.01 81 1018.6
20260905181557 60 0 0.0 4.0 0.00 0.01 0.01 85 1018.5
20260905180055 60 0 1.0 3.0 0.00 0.01 0.01 87 1018.8
20260905174552 59 110 2.0 6.0 0.00 0.01 0.01 87 1018.7
20260905173047 60 0 2.0 6.0 0.00 0.01 0.01 86 1018.6
20260905171605 59 107 0.0 3.0 0.00 0.01 0.01 89 1018.6
20260905170101 58 0 0.0 3.0 0.00 0.01 0.01 93 1018.4
20260905164602 57 0 0.0 3.0 0.00 0.02 0.01 94 1018.4
20260905163110 56 0 0.0 2.0 0.00 0.02 0.01 95 1018.5
20260905161551 55 0 0.0 1.0 0.00 0.02 0.01 96 1018.3
20260905160100 55 0 0.0 2.0 0.00 0.02 0.01 96 1018.4
20260905154615 54 0 0.0 0.0 0.00 0.02 0.01 96 1018.4
20260905153107 54 0 0.0 2.0 0.00 0.02 0.01 96 1018.4
20260905151614 54 0 0.0 3.0 0.00 0.02 0.01 96 1018.5
20260905150059 54 13 1.0 3.0 0.00 0.02 0.01 97 1018.2
20260905144600 53 0 0.0 1.0 0.00 0.02 0.01 97 1018.3
20260905143056 52 0 0.0 1.0 0.00 0.02 0.01 97 1018.4
20260905141551 52 0 0.0 0.0 0.00 0.02 0.01 96 1018.2
20260905140100 52 0 0.0 0.0 0.00 0.02 0.01 96 1018.2
20260905134558 51 0 0.0 0.0 0.00 0.02 0.01 96 1018.0
20260905133051 51 0 0.0 0.0 0.00 0.02 0.01 96 1018.0
20260905131604 51 0 0.0 0.0 0.00 0.02 0.01 96 1018.1
20260905130055 51 0 0.0 0.0 0.00 0.02 0.01 96 1018.0
20260905124552 51 0 0.0 0.0 0.00 0.02 0.01 96 1017.9
20260905123102 51 0 0.0 0.0 0.00 0.02 0.01 96 1017.9
20260905121602 51 0 0.0 2.0 0.00 0.02 0.01 96 1017.9
20260905120052 51 0 0.0 0.0 0.00 0.02 0.01 96 1017.7
20260905114554 51 306 0.0 1.0 0.00 0.02 0.01 96 1017.7
20260905113051 51 306 0.0 2.0 0.00 0.02 0.01 96 1017.7
20260905111641 51 0 0.0 1.0 0.00 0.02 0.01 96 1017.6
20260905110057 51 258 0.0 1.0 0.00 0.02 0.01 96 1017.7
20260905104547 51 258 0.0 2.0 0.00 0.02 0.01 96 1017.8
20260905103102 50 258 0.0 2.0 0.00 0.02 0.01 96 1017.8
20260905101604 50 0 0.0 0.0 0.00 0.02 0.01 96 1017.8
20260905100052 50 0 0.0 0.0 0.00 0.02 0.01 96 1017.7
20260905094549 50 0 0.0 0.0 0.00 0.02 0.01 96 1017.6
20260905093106 50 0 0.0 0.0 0.00 0.02 0.01 96 1017.6
20260905091553 49 0 0.0 0.0 0.00 0.02 0.01 96 1017.5
20260905090059 49 0 0.0 0.0 0.00 0.02 0.01 96 1017.4
20260905084604 49 0 0.0 0.0 0.01 0.02 0.01 96 1017.5
20260905083052 48 0 0.0 0.0 0.01 0.02 0.01 96 1017.5
20260905081552 48 258 0.0 2.0 0.01 0.02 0.01 96 1017.3
20260905080058 47 0 0.0 0.0 0.01 0.02 0.01 95 1017.3
20260905074558 47 0 0.0 1.0 0.00 0.01 0.00 95 1017.2